FW9116 Weather Reports


Display with metric or nautical units.
time (UTC)temp
F
wind
direction
speed
MPH
gust
MPH
rain 1hr
in
rain 24hr
in
rain mn
in
humidity
%
barometer
mb
20260509082054 54 13 1.0 4.0 0.00 0.00 0.00 82 1021.9
20260509081606 54 360 1.0 4.0 0.00 0.00 0.00 81 1021.9
20260509081054 54 20 1.0 4.0 0.00 0.00 0.00 81 1022.0
20260509080553 54 13 1.0 4.0 0.00 0.00 0.00 81 1022.1
20260509080055 54 5 0.0 2.0 0.00 0.00 0.00 81 1022.1
20260509075553 54 0 0.0 3.0 0.00 0.00 0.00 81 1022.1
20260509075056 54 0 0.0 4.0 0.00 0.00 0.00 80 1022.1
20260509074559 54 26 0.0 5.0 0.00 0.00 0.00 80 1022.1
20260509074056 54 15 1.0 5.0 0.00 0.00 0.00 80 1022.0
20260509073557 55 15 0.0 1.0 0.00 0.00 0.00 80 1022.0
20260509073105 55 5 0.0 4.0 0.00 0.00 0.00 80 1022.1
20260509072557 55 0 0.0 5.0 0.00 0.00 0.00 79 1022.0
20260509072057 55 17 0.0 5.0 0.00 0.00 0.00 79 1022.0
20260509071602 55 360 1.0 4.0 0.00 0.00 0.00 79 1022.1
20260509071054 55 5 0.0 2.0 0.00 0.00 0.00 78 1022.1
20260509070554 56 14 0.0 3.0 0.00 0.00 0.00 78 1022.0
20260509070057 56 14 1.0 3.0 0.00 0.00 0.00 77 1022.1
20260509065553 56 0 1.0 4.0 0.00 0.00 0.00 76 1022.1
20260509065053 56 5 1.0 5.0 0.00 0.00 0.00 76 1022.0
20260509064616 57 9 2.0 5.0 0.00 0.00 0.00 76 1022.0
20260509064058 57 352 2.0 5.0 0.00 0.00 0.00 75 1022.0
20260509063557 57 352 1.0 5.0 0.00 0.00 0.00 76 1022.0
20260509063055 57 13 1.0 5.0 0.00 0.00 0.00 75 1022.0
20260509062554 57 13 1.0 5.0 0.00 0.00 0.00 75 1021.9
20260509062054 57 0 1.0 5.0 0.00 0.00 0.00 74 1021.9
20260509061556 57 14 1.0 5.0 0.00 0.00 0.00 74 1021.8
20260509061058 57 17 1.0 4.0 0.00 0.00 0.00 73 1021.7
20260509060554 58 10 1.0 4.0 0.00 0.00 0.00 73 1021.7
20260509060057 58 11 1.0 4.0 0.00 0.00 0.00 72 1021.8
20260509055554 58 5 1.0 4.0 0.00 0.00 0.00 72 1021.7
20260509055057 58 0 0.0 4.0 0.00 0.00 0.00 72 1021.7
20260509054603 59 11 2.0 6.0 0.00 0.00 0.00 71 1021.7
20260509054057 59 24 2.0 6.0 0.00 0.00 0.00 71 1021.6
20260509053558 59 327 1.0 4.0 0.00 0.00 0.00 71 1021.7
20260509053105 59 21 1.0 9.0 0.00 0.00 0.00 70 1021.6
20260509052558 59 17 2.0 9.0 0.00 0.00 0.00 70 1021.6
20260509052057 60 0 1.0 4.0 0.00 0.00 0.00 69 1021.6
20260509051559 60 5 0.0 3.0 0.00 0.00 0.00 69 1021.5
20260509051054 60 5 0.0 4.0 0.00 0.00 0.00 69 1021.4
20260509050601 60 9 1.0 5.0 0.00 0.00 0.00 68 1021.5
20260509050058 60 11 1.0 5.0 0.00 0.00 0.00 68 1021.4
20260509045554 61 10 2.0 5.0 0.00 0.00 0.00 67 1021.4
20260509045058 61 346 2.0 8.0 0.00 0.00 0.00 67 1021.4
20260509044554 61 22 2.0 8.0 0.00 0.00 0.00 67 1021.3
20260509044056 61 11 1.0 3.0 0.00 0.00 0.00 67 1021.3
20260509043556 61 0 0.0 3.0 0.00 0.00 0.00 66 1021.3
20260509043100 61 0 0.0 4.0 0.00 0.00 0.00 66 1021.2
20260509042555 62 355 1.0 5.0 0.00 0.00 0.00 65 1021.2
20260509042057 62 5 1.0 8.0 0.00 0.00 0.00 64 1021.2
20260509041619 62 0 0.0 8.0 0.00 0.00 0.00 63 1021.1
20260509041058 63 0 3.0 8.0 0.00 0.00 0.00 62 1021.1
20260509040557 63 25 2.0 6.0 0.00 0.00 0.00 62 1021.1
20260509040056 63 37 1.0 6.0 0.00 0.00 0.00 61 1021.1
20260509035557 63 11 2.0 5.0 0.00 0.00 0.00 61 1021.0
20260509035058 63 27 1.0 6.0 0.00 0.00 0.00 61 1021.1
20260509034555 63 59 2.0 7.0 0.00 0.00 0.00 60 1020.9
20260509034055 63 10 2.0 8.0 0.00 0.00 0.00 59 1020.8
20260509033555 64 84 2.0 8.0 0.00 0.00 0.00 59 1020.8
20260509033115 64 49 0.0 5.0 0.00 0.00 0.00 59 1020.8
20260509032553 64 17 0.0 5.0 0.00 0.00 0.00 58 1020.7
20260509032055 64 0 1.0 5.0 0.00 0.00 0.00 58 1020.7
20260509031555 64 0 1.0 5.0 0.00 0.00 0.00 57 1020.5
20260509031058 65 9 0.0 4.0 0.00 0.00 0.00 57 1020.6
20260509030554 65 13 1.0 4.0 0.00 0.00 0.00 56 1020.5
20260509030058 65 0 0.0 2.0 0.00 0.00 0.00 57 1020.5
20260509025557 65 234 0.0 2.0 0.00 0.00 0.00 56 1020.5
20260509025054 65 234 0.0 1.0 0.00 0.00 0.00 57 1020.5
20260509024554 65 0 0.0 2.0 0.00 0.00 0.00 56 1020.4
20260509024054 65 0 0.0 2.0 0.00 0.00 0.00 55 1020.3
20260509023554 66 0 0.0 2.0 0.00 0.00 0.00 55 1020.3
20260509023108 66 234 0.0 2.0 0.00 0.00 0.00 56 1020.3
20260509022558 66 234 0.0 1.0 0.00 0.00 0.00 55 1020.2
20260509022054 66 0 0.0 1.0 0.00 0.00 0.00 55 1020.3
20260509021554 66 0 0.0 1.0 0.00 0.00 0.00 54 1020.3
20260509021053 66 0 0.0 1.0 0.00 0.00 0.00 54 1020.3
20260509020553 66 0 0.0 1.0 0.00 0.00 0.00 54 1020.4
20260509020100 66 0 0.0 1.0 0.00 0.00 0.00 54 1020.4
20260509015556 66 0 0.0 4.0 0.00 0.00 0.00 53 1020.4
20260509015055 66 0 0.0 4.0 0.00 0.00 0.00 55 1020.4
20260509014557 66 196 0.0 2.0 0.00 0.00 0.00 54 1020.4
20260509014053 66 0 0.0 2.0 0.00 0.00 0.00 53 1020.4
20260509013555 66 233 0.0 4.0 0.00 0.00 0.00 52 1020.4
20260509013102 67 274 0.0 4.0 0.00 0.00 0.00 53 1020.5
20260509012553 67 0 1.0 3.0 0.00 0.00 0.00 52 1020.5
20260509012053 67 296 1.0 3.0 0.00 0.00 0.00 51 1020.5
20260509011558 68 253 0.0 2.0 0.00 0.00 0.00 52 1020.5
20260509011055 67 146 0.0 3.0 0.00 0.00 0.00 51 1020.6
20260509010554 67 0 1.0 4.0 0.00 0.00 0.00 51 1020.7
20260509010057 68 276 0.0 4.0 0.00 0.00 0.00 50 1020.6
20260509005557 68 28 0.0 4.0 0.00 0.00 0.00 50 1020.6
20260509005054 68 0 1.0 4.0 0.00 0.00 0.00 50 1020.7
20260509004556 68 172 1.0 4.0 0.00 0.00 0.00 53 1020.7
20260509004053 67 0 1.0 4.0 0.00 0.00 0.00 52 1020.8
20260509003554 67 55 2.0 4.0 0.00 0.00 0.00 51 1020.7
20260509003057 67 0 1.0 4.0 0.00 0.00 0.00 52 1020.7
20260509002600 67 57 1.0 4.0 0.00 0.00 0.00 52 1020.7
20260509002057 67 123 1.0 4.0 0.00 0.00 0.00 52 1020.7
20260509001555 68 251 2.0 7.0 0.00 0.00 0.00 51 1020.8
20260509001057 67 248 1.0 7.0 0.00 0.00 0.00 51 1020.8
20260509000557 67 0 3.0 10.0 0.00 0.00 0.00 51 1020.8
20260509000115 68 274 2.0 10.0 0.00 0.00 0.00 51 1020.8
20260508235558 68 194 5.0 10.0 0.00 0.00 0.00 51 1021.0
20260508235058 67 273 1.0 7.0 0.00 0.00 0.00 51 1020.9
20260508234600 67 186 2.0 7.0 0.00 0.00 0.00 51 1020.8
20260508234100 67 219 3.0 8.0 0.00 0.00 0.00 51 1020.8
20260508233558 68 267 2.0 12.0 0.00 0.00 0.00 51 1020.8
20260508233113 67 283 3.0 12.0 0.00 0.00 0.00 52 1020.8
20260508232557 67 294 2.0 8.0 0.00 0.00 0.00 52 1020.9
20260508232057 66 237 2.0 8.0 0.00 0.00 0.00 53 1020.9
20260508231556 66 85 1.0 7.0 0.00 0.00 0.00 52 1020.9
20260508231057 65 15 2.0 16.0 0.00 0.00 0.00 54 1020.9
20260508230601 66 301 3.0 16.0 0.00 0.00 0.00 52 1020.9
20260508230100 67 252 2.0 8.0 0.00 0.00 0.00 51 1020.9
20260508225557 67 278 1.0 10.0 0.00 0.00 0.00 51 1021.0
20260508225057 66 0 2.0 10.0 0.00 0.00 0.00 52 1021.0
20260508224558 66 145 3.0 8.0 0.00 0.00 0.00 55 1020.9
20260508224057 66 269 2.0 9.0 0.00 0.00 0.00 51 1020.8
20260508223601 65 167 3.0 9.0 0.00 0.00 0.00 53 1020.9
20260508223057 65 166 3.0 10.0 0.00 0.00 0.00 53 1021.0
20260508222557 66 128 1.0 10.0 0.00 0.00 0.00 54 1020.9
20260508222057 65 281 4.0 10.0 0.00 0.00 0.00 52 1020.9
20260508221555 66 241 1.0 11.0 0.00 0.00 0.00 52 1021.1
20260508221058 65 290 4.0 11.0 0.00 0.00 0.00 52 1021.2
20260508220558 66 290 2.0 11.0 0.00 0.00 0.00 53 1021.3
20260508220059 65 295 1.0 13.0 0.00 0.00 0.00 52 1021.4
20260508215557 64 239 5.0 13.0 0.00 0.00 0.00 54 1021.4
20260508215101 65 268 2.0 9.0 0.00 0.00 0.00 54 1021.3
20260508214557 64 257 4.0 9.0 0.00 0.00 0.00 55 1021.3
20260508214057 64 300 1.0 9.0 0.00 0.00 0.00 54 1021.3
20260508213557 64 240 5.0 9.0 0.00 0.00 0.00 53 1021.3
20260508213055 64 200 4.0 10.0 0.00 0.00 0.00 55 1021.3
20260508212552 64 280 3.0 10.0 0.00 0.00 0.00 54 1021.3
20260508212056 64 119 3.0 8.0 0.00 0.00 0.00 54 1021.4
20260508211554 63 196 1.0 8.0 0.00 0.00 0.00 55 1021.4
20260508211058 62 124 3.0 13.0 0.00 0.00 0.00 56 1021.4
20260508210554 62 104 3.0 13.0 0.00 0.00 0.00 57 1021.3
20260508210056 63 119 3.0 13.0 0.00 0.00 0.00 56 1021.5
20260508205553 63 182 3.0 11.0 0.00 0.00 0.00 54 1021.4
20260508205053 63 262 3.0 10.0 0.00 0.00 0.00 54 1021.4
20260508204557 62 278 1.0 10.0 0.00 0.00 0.00 56 1021.5
20260508204053 62 106 3.0 10.0 0.00 0.00 0.00 54 1021.4
20260508203557 62 196 2.0 7.0 0.00 0.00 0.00 55 1021.4
20260508203055 62 145 3.0 8.0 0.00 0.00 0.00 57 1021.5
20260508202553 62 281 3.0 8.0 0.00 0.00 0.00 56 1021.5
20260508202057 61 178 3.0 8.0 0.00 0.00 0.00 58 1021.5
20260508201555 62 175 3.0 11.0 0.00 0.00 0.00 56 1021.5
20260508201053 62 245 4.0 11.0 0.00 0.00 0.00 57 1021.6
20260508200553 61 111 2.0 9.0 0.00 0.00 0.00 57 1021.5
20260508200109 61 0 2.0 11.0 0.00 0.00 0.00 59 1021.6
20260508195553 61 248 3.0 12.0 0.00 0.00 0.00 59 1021.6
20260508195053 60 298 3.0 12.0 0.00 0.00 0.00 61 1021.6
20260508194555 59 309 6.0 12.0 0.00 0.00 0.00 59 1021.8
20260508194053 61 240 4.0 9.0 0.00 0.00 0.00 57 1021.7
20260508193553 61 90 1.0 9.0 0.00 0.00 0.00 58 1021.7
20260508193140 60 184 4.0 10.0 0.00 0.00 0.00 59 1021.7
20260508192553 60 202 3.0 11.0 0.00 0.00 0.00 59 1021.7
20260508192054 60 202 3.0 11.0 0.00 0.00 0.00 59 1021.7
20260508191557 59 329 6.0 11.0 0.00 0.00 0.00 61 1021.6
20260508191054 60 171 3.0 13.0 0.00 0.00 0.00 59 1021.8
20260508190553 60 175 3.0 13.0 0.00 0.00 0.00 59 1021.8
20260508190056 58 259 6.0 13.0 0.00 0.00 0.00 63 1021.8
20260508185557 57 166 4.0 10.0 0.00 0.00 0.00 61 1021.8
20260508185054 58 239 4.0 10.0 0.00 0.00 0.00 63 1021.8
20260508184605 57 246 4.0 10.0 0.00 0.00 0.00 66 1021.8
20260508184053 57 206 4.0 9.0 0.00 0.00 0.00 67 1021.8
20260508183553 57 227 2.0 8.0 0.00 0.00 0.00 67 1021.8
20260508183123 56 205 3.0 8.0 0.00 0.00 0.00 67 1021.7
20260508182632 56 244 4.0 8.0 0.00 0.00 0.00 66 1021.8
20260508182101 57 284 3.0 9.0 0.00 0.00 0.00 65 1021.8
20260508181607 57 297 2.0 9.0 0.00 0.00 0.00 64 1021.7
20260508181058 58 225 4.0 7.0 0.00 0.00 0.00 66 1021.6
20260508180557 57 285 2.0 8.0 0.00 0.00 0.00 64 1021.6
20260508180057 57 235 3.0 11.0 0.00 0.00 0.00 67 1021.6
20260508175557 57 167 3.0 11.0 0.00 0.00 0.00 67 1021.6
20260508175058 56 261 2.0 11.0 0.00 0.00 0.00 68 1021.5
20260508174604 56 239 4.0 11.0 0.00 0.00 0.00 68 1021.5
20260508174058 56 275 4.0 11.0 0.00 0.00 0.00 68 1021.5
20260508173554 57 0 1.0 10.0 0.00 0.00 0.00 68 1021.4
20260508173056 57 258 2.0 10.0 0.00 0.00 0.00 70 1021.4
20260508172557 56 288 4.0 10.0 0.00 0.00 0.00 70 1021.3
20260508172058 56 254 1.0 5.0 0.00 0.00 0.00 71 1021.1
20260508171557 55 294 2.0 7.0 0.00 0.00 0.00 72 1021.1
20260508171057 55 273 1.0 7.0 0.00 0.00 0.00 73 1021.1
20260508170557 55 158 2.0 7.0 0.00 0.00 0.00 72 1021.0
20260508170100 54 284 3.0 7.0 0.00 0.00 0.00 73 1020.9
20260508165554 55 176 2.0 7.0 0.00 0.00 0.00 73 1020.9
20260508165057 54 258 1.0 4.0 0.00 0.00 0.00 74 1020.9
20260508164559 54 0 1.0 4.0 0.00 0.00 0.00 74 1020.6
20260508164057 54 232 1.0 7.0 0.00 0.00 0.00 74 1020.5
20260508163559 54 244 1.0 7.0 0.00 0.00 0.00 76 1020.5
20260508163056 53 178 2.0 6.0 0.00 0.00 0.00 75 1020.6
20260508162558 53 197 2.0 6.0 0.00 0.00 0.00 76 1020.6
20260508162058 53 182 1.0 8.0 0.00 0.00 0.00 75 1020.6
20260508161558 53 264 2.0 8.0 0.00 0.00 0.00 76 1020.7
20260508161058 53 268 3.0 8.0 0.00 0.00 0.00 76 1020.4
20260508160558 53 117 2.0 7.0 0.00 0.00 0.00 76 1020.4
20260508160057 53 144 1.0 7.0 0.00 0.00 0.00 76 1020.3
20260508155601 52 155 3.0 8.0 0.00 0.00 0.00 77 1020.4
20260508155057 52 166 3.0 8.0 0.00 0.00 0.00 77 1020.3
20260508154614 52 222 2.0 7.0 0.00 0.00 0.00 77 1020.5
20260508154057 52 167 3.0 7.0 0.00 0.00 0.00 78 1020.4
20260508153558 51 209 3.0 8.0 0.00 0.00 0.00 78 1020.3
20260508153056 51 188 2.0 8.0 0.00 0.00 0.00 78 1020.3
20260508152558 52 135 4.0 8.0 0.00 0.00 0.00 78 1020.4
20260508152058 52 257 3.0 7.0 0.00 0.00 0.00 78 1020.5
20260508151600 52 126 3.0 5.0 0.00 0.00 0.00 78 1020.5
20260508151058 52 0 1.0 5.0 0.00 0.00 0.00 78 1020.5
20260508150559 51 183 2.0 6.0 0.00 0.00 0.00 79 1020.5
20260508150058 51 135 2.0 6.0 0.00 0.00 0.00 79 1020.5
20260508145557 51 0 1.0 5.0 0.00 0.00 0.00 79 1020.7
20260508145055 51 184 1.0 4.0 0.00 0.00 0.00 79 1020.6
20260508144607 51 0 1.0 5.0 0.00 0.00 0.00 79 1020.7
20260508144054 51 142 1.0 5.0 0.00 0.00 0.00 79 1020.7
20260508143558 50 198 1.0 7.0 0.00 0.00 0.00 81 1020.6
20260508143106 50 142 2.0 8.0 0.00 0.00 0.00 80 1020.6
20260508142555 50 207 2.0 8.0 0.00 0.00 0.00 81 1020.7
20260508142057 50 220 1.0 6.0 0.00 0.00 0.00 81 1020.5
20260508141604 50 0 3.0 6.0 0.00 0.00 0.00 82 1020.5
20260508141056 49 176 2.0 6.0 0.00 0.00 0.00 82 1020.3
20260508140559 49 202 1.0 7.0 0.00 0.00 0.00 83 1020.2
20260508140056 49 281 2.0 7.0 0.00 0.00 0.00 83 1020.2
20260508135556 49 186 1.0 7.0 0.00 0.00 0.00 83 1020.1
20260508135058 49 175 2.0 7.0 0.00 0.00 0.00 83 1019.9
20260508134622 49 175 2.0 6.0 0.00 0.00 0.00 82 1019.8
20260508134056 49 0 2.0 6.0 0.00 0.00 0.00 82 1019.8
20260508133557 49 191 0.0 6.0 0.00 0.00 0.00 81 1019.6
20260508133100 49 0 2.0 6.0 0.00 0.00 0.00 81 1019.6
20260508132558 49 0 0.0 2.0 0.00 0.00 0.00 80 1019.4
20260508132057 49 181 0.0 5.0 0.00 0.00 0.00 79 1019.4
20260508131556 49 249 0.0 5.0 0.00 0.00 0.00 79 1019.3
20260508131059 49 253 1.0 4.0 0.00 0.00 0.00 79 1019.1
20260508130557 49 167 0.0 5.0 0.00 0.00 0.00 79 1019.0
20260508130057 49 210 1.0 5.0 0.00 0.00 0.00 79 1018.8
20260508125558 49 167 1.0 4.0 0.00 0.00 0.00 79 1018.6
20260508125055 50 153 0.0 4.0 0.00 0.00 0.00 79 1018.5
20260508124603 50 0 0.0 4.0 0.00 0.00 0.00 79 1018.6
20260508124057 50 188 0.0 2.0 0.00 0.00 0.00 79 1018.5
20260508123555 50 132 0.0 2.0 0.00 0.00 0.00 79 1018.3
20260508123057 50 0 0.0 2.0 0.00 0.00 0.00 79 1018.4
20260508122555 50 132 1.0 2.0 0.00 0.00 0.00 79 1018.4
20260508122054 50 127 1.0 2.0 0.00 0.00 0.00 79 1018.4
20260508121554 51 0 0.0 2.0 0.00 0.00 0.00 78 1018.4
20260508121055 51 155 0.0 3.0 0.00 0.00 0.00 78 1018.3
20260508120554 51 155 0.0 4.0 0.00 0.00 0.00 78 1018.4
20260508120055 51 163 0.0 4.0 0.00 0.00 0.00 77 1018.3
20260508115554 51 185 1.0 3.0 0.00 0.00 0.00 78 1018.4
20260508115057 51 185 1.0 3.0 0.00 0.00 0.00 78 1018.3
20260508114557 51 185 0.0 3.0 0.00 0.00 0.00 78 1018.2
20260508114055 51 185 0.0 4.0 0.00 0.00 0.00 78 1018.1
20260508113555 51 185 0.0 5.0 0.00 0.00 0.00 79 1018.1
20260508113056 51 185 1.0 5.0 0.00 0.00 0.00 79 1017.9
20260508112557 51 0 0.0 7.0 0.00 0.00 0.00 79 1017.9
20260508112056 51 0 1.0 7.0 0.00 0.00 0.00 78 1017.7
20260508111557 51 209 3.0 8.0 0.00 0.00 0.00 78 1017.7
20260508111054 51 164 3.0 8.0 0.00 0.00 0.00 78 1017.6
20260508110555 51 165 2.0 6.0 0.00 0.00 0.00 78 1017.4
20260508110057 52 159 2.0 7.0 0.00 0.00 0.00 78 1017.2
20260508105600 52 191 4.0 7.0 0.00 0.00 0.00 78 1017.2
20260508105055 52 165 2.0 6.0 0.00 0.00 0.00 78 1017.2
20260508104553 52 177 2.0 6.0 0.00 0.00 0.00 78 1017.2
20260508104054 52 192 3.0 5.0 0.00 0.00 0.00 79 1017.0
20260508103555 52 160 1.0 5.0 0.00 0.00 0.00 80 1017.0
20260508103100 52 185 2.0 4.0 0.00 0.00 0.00 80 1017.0
20260508102555 52 0 1.0 5.0 0.00 0.00 0.00 80 1017.1
20260508102055 52 0 0.0 5.0 0.00 0.00 0.00 80 1017.0
20260508101558 52 0 0.0 4.0 0.00 0.00 0.00 80 1017.0
20260508101055 52 0 0.0 4.0 0.00 0.00 0.00 80 1017.0
20260508100554 52 176 1.0 4.0 0.00 0.00 0.00 80 1017.0
20260508100109 52 0 1.0 4.0 0.00 0.00 0.00 80 1017.0
20260508095555 52 166 0.0 2.0 0.00 0.00 0.00 80 1016.9
20260508095055 52 146 0.0 2.0 0.00 0.00 0.00 80 1016.8
20260508094605 52 0 0.0 3.0 0.00 0.00 0.00 80 1016.9
20260508094054 52 0 0.0 3.0 0.00 0.00 0.00 80 1016.8
20260508093555 52 146 0.0 2.0 0.00 0.00 0.00 79 1016.8
20260508093056 53 0 0.0 1.0 0.00 0.00 0.00 79 1016.8
20260508092602 53 0 0.0 2.0 0.00 0.00 0.00 79 1016.7
20260508092055 53 0 0.0 2.0 0.00 0.00 0.00 79 1016.8
20260508091603 53 5 0.0 2.0 0.00 0.00 0.00 78 1016.8
20260508091055 53 5 0.0 4.0 0.00 0.00 0.00 78 1016.7
20260508090555 53 0 0.0 4.0 0.00 0.00 0.00 78 1016.7
20260508090114 53 0 0.0 2.0 0.00 0.00 0.00 78 1016.7
20260508085553 53 0 0.0 2.0 0.00 0.00 0.00 77 1016.6
20260508085055 53 5 0.0 2.0 0.00 0.00 0.00 77 1016.6
20260508084555 53 0 0.0 2.0 0.00 0.00 0.00 76 1016.5
20260508084056 53 0 0.0 2.0 0.00 0.00 0.00 76 1016.5
20260508083555 54 5 0.0 2.0 0.00 0.00 0.00 74 1016.4
20260508083053 54 5 0.0 1.0 0.00 0.00 0.00 73 1016.5
20260508082555 54 0 0.0 1.0 0.00 0.00 0.00 73 1016.4